OPS 4682 DEB, 38378

Orbit data source: Space-Track

OPS 4682 DEB, 38378 is space debris in LEO originally from a launch on Sat, 03 Apr 1965 UTC launched from the Air Force Western Test Range (AFWTR). Debris objects in space refer to the collection of defunct objects orbiting the Earth. Examples of debris include non-operational satellites, rocket bodies, and fragments generated from explosions, collisions, or faulty payload assembly.

Loading next visibility...
Identifier
38378, 1965-027CF
Orbit
LEO
Country
Flag of USUS
Related business
Manufacturer
Unknown
Mission
Spacecraft
Bus & Motor
Unknown
Mass
Unknown
Launch date (UTC)
1965-04-03 (61 years ago)
Launch vehicle
Unknown
Launch site
Air Force Western Test Range (AFWTR)
Object type
Payload
Rocket body
Debris
Shape & HBR
Unknown shape, 0.1 m
Radar Cross Section
Medium (>0.1 m² and <1 m²)

Expand to show TLE details & history
Last TLE update: 1 week ago

TLE from 1 week ago
0 OPS 4682 DEB
1 38378U 65027CF  26151.95669012  .00000772  00000-0  24193-2 0  9999
2 38378  90.2260 338.9858 0033609 227.0746 132.7557 13.03277446616890
Epoch: 2026-05-31T22:57Z
TLE epoch observation values (Epoch: 2026-05-31T22:57:38.026Z)
Latitude
-0.00001°
Longitude
105.12643°
Altitude
1,269.613 km
Speed
7.213 km/s
True Right ascension
22h 35m 56s
True Declination
0° 00' 00"
Sunlit
Object was in daylight at epoch
Visualization orbit readout
Latitude
Unknown
Longitude
Unknown
Altitude
Unknown
Speed
Unknown
Apparent Right ascension
Unknown
Apparent Declination
Unknown
Sunlit
N/A
Visualization observer readout
Local Sidereal Time
15:37:08
Azimuth
Unknown
Elevation
Unknown
Doppler factor
Unknown
Orbital elements
Apogee altitude
1,272.02 km
Perigee altitude
1,220.769 km
Semi-major axis
7,624.531 km
Eccentricity
0.00336
Inclination
90.226°
RAAN
338.9858°
Arg. of periapsis
227.0746°
True anomaly
133.03768°
Mean anomaly
132.7557°
Eccentric anomaly
132.89677°
Mean motion
3.26004 °/min
Orbital period
110.43 mins
BSTAR
0.0024193
Loading maneuver chart data...
Computing Atmospheric mass density...
Loading historical data...
Loading historical data...
Loading historical data...
Loading historical data...
Loading historical data...
Loading historical data...
Loading historical data...

Documentation

Showing up to 5 results
|